Weather in Priyutovo

Russia / Republic of Bashkortostan     53°53′42″N   53°56′12″E
temp.,
°C
wind,
m/s
gust,
m/s
humid.,
%
clouds,
%
prec.,
mm/h
press.,
hPa
HPBL,
m
7 march, sun
sun723:00−13nw2297100 0.1 101421
02:00−15n2293100 0.0 101320
05:00−15nne229099 0.0 101220
08:00−19nw119549 0.0 101220
11:00−14w239125 0.0 1012114
14:00−11w469313 0.0 1012334
17:00−11wsw359555 0.0 1011379
20:00−15ssw33100100 0.1 101133
8 march, mon
mon823:00−15s4798100 0.1 1011142
02:00−13s61297100 0.1 1008305
05:00−11ssw81694100 0.5 1005554
08:00−9ssw101794100 1.3 1002858
11:00−6ssw111794100 2.6 10001183
14:00−3wsw101594100 1.6 10011222
17:00−5wsw9158091 2.6 10031152
20:00−8sw6158633 0.0 1005452
9 march, tue
tue923:00−10sw5109217 0.0 1006205
02:00−9ssw339666 0.1 100549
05:00−6ssw359782 0.5 1003133
08:00−6wsw6129598 0.5 1003597
11:00−7wsw7119199 0.9 1005858
14:00−8wsw589199 0.1 1008593
17:00−9w349299 0.1 1009359
20:00−14wnw2210075 0.0 100920
10 march, wed
wed1023:00−13n239687 0.0 100932
02:00−14nnw3398100 0.0 100838
05:00−16nnw3398100 0.1 100861
08:00−19nw3410094 0.0 100958
11:00−16nw479597 0.1 1011303
14:00−14nw4693100 0.1 1012447
17:00−15nnw5792100 0.1 1013473
20:00−20nnw469999 0.1 1016128
11 march, thu
thu1123:00−23nnw349992 0.1 101866
02:00−25nnw2310091 0.0 101924
05:00−27nw2310095 0.0 102124
08:00−29nw2210057 0.0 102219
11:00−24w349628 0.0 1023157
14:00−21wsw57952 0.0 1023308
17:00−20wsw599746 0.0 1023361
20:00−21wsw51199100 0.1 1024356